User: anonymous   Login
Location: Unspecified
(0.0000°N, 0.0000°E)
Time: 05:08:54
(UTC+00:00)
Language:

DELFI-N3XT - Orbit

View from above orbital plane
View from above orbital plane
View from above satellite
View from above satellite

Ground track
Ground track

The orbit data is extracted from the following two-line orbital elements,

1 39420U 13066E   18343.89975640  .00000181  00000-0  39780-4 0  9992
2 39420  97.6993 315.3519 0139031 107.4483 254.1973 14.62126933269379
Epoch (UTC): 09 December 2018 21:35:38
Eccentricity: 0.0139031
inclination: 97.6993°
perigee height: 588 km
apogee height: 784 km
right ascension of ascending node: 315.3519°
argument of perigee: 107.4483°
revolutions per day: 14.62126933
mean anomaly at epoch: 254.1973°
orbit number at epoch: 26937

The dashed part of the orbit path shows where the satellite is in the earth's shadow,  

DLR